Location: Choisy
(48.7685°N, 2.4187°E)
Time: 08:17:08
(UTC+00:00)

ATLAS 3B R/B - Pass Details

Date: 01 December 2023
Orbit: 947 x 1247 km, 63.8° (Epoch: 10 February)

Event Time Altitude Azimuth Distance (km) Brightness Sun altitude
Exits shadow 02:35:16 14° 119° (ESE) 2,692 5.0 -45.9°
Maximum altitude 02:37:04 15° 103° (ESE) 2,631 5.1 -45.7°
Drops below altitude 10° 02:40:47 10° 71° (ENE) 3,047 5.7 -45.1°
Sets 02:44:56 0° 50° (NE) 4,074 6.4 -44.5°
